Time,TemperatureF,DewpointF,PressureIn,WindDirection,WindDirectionDegrees,WindSpeedMPH,WindSpeedGustMPH,Humidity,HourlyPrecipIn,Conditions,Clouds,dailyrainin,SoftwareType,DateUTC
2013-02-18 00:00:00,21.9,7.4,30.15,WNW,292,0.0,0.0,53,0.00,,CLR,0.00,VWS V14.01,2013-02-18 05:00:00,
2013-02-18 00:01:00,21.9,7.8,30.15,WNW,292,0.0,0.0,54,0.00,,CLR,0.00,VWS V14.01,2013-02-18 05:01:00,
2013-02-18 00:06:00,21.7,7.7,30.15,WNW,292,0.0,0.0,54,0.00,,CLR,0.00,VWS V14.01,2013-02-18 05:06:00,
2013-02-18 00:11:00,21.7,8.1,30.15,WNW,292,0.0,0.0,55,0.00,,CLR,0.00,VWS V14.01,2013-02-18 05:11:00,
2013-02-18 00:16:00,21.6,7.9,30.15,WNW,292,0.0,0.0,55,0.00,,CLR,0.00,VWS V14.01,2013-02-18 05:16:00,
2013-02-18 00:21:00,21.4,8.1,30.15,WNW,292,0.0,0.0,56,0.00,,CLR,0.00,VWS V14.01,2013-02-18 05:21:00,
2013-02-18 00:26:00,21.6,8.3,30.15,WNW,292,0.0,0.0,56,0.00,,CLR,0.00,VWS V14.01,2013-02-18 05:26:00,
2013-02-18 00:31:00,21.2,7.2,30.15,WNW,292,0.0,0.0,54,0.00,,CLR,0.00,VWS V14.01,2013-02-18 05:31:00,
2013-02-18 00:36:00,21.6,7.5,30.15,WNW,292,0.0,0.0,54,0.00,,CLR,0.00,VWS V14.01,2013-02-18 05:36:00,
2013-02-18 00:41:00,21.4,7.3,30.15,WNW,292,2.2,2.2,54,0.00,,CLR,0.00,VWS V14.01,2013-02-18 05:41:00,
2013-02-18 00:46:00,21.2,7.6,30.15,WNW,292,0.0,0.0,55,0.00,,CLR,0.00,VWS V14.01,2013-02-18 05:46:00,
2013-02-18 00:51:00,21.0,7.4,30.15,WNW,292,0.0,0.0,55,0.00,,CLR,0.00,VWS V14.01,2013-02-18 05:51:00,
2013-02-18 00:56:00,21.0,7.4,30.15,WNW,292,0.0,0.0,55,0.00,,CLR,0.00,VWS V14.01,2013-02-18 05:56:00,
2013-02-18 01:01:00,21.0,7.8,30.15,WNW,292,0.0,0.0,56,0.00,,CLR,0.00,VWS V14.01,2013-02-18 06:01:00,
2013-02-18 01:06:00,21.2,8.0,30.15,WNW,292,0.0,0.0,56,0.00,,CLR,0.00,VWS V14.01,2013-02-18 06:06:00,
2013-02-18 01:11:00,21.0,8.2,30.15,WNW,292,0.0,0.0,57,0.00,,CLR,0.00,VWS V14.01,2013-02-18 06:11:00,
2013-02-18 01:16:00,20.8,8.4,30.18,WNW,292,0.0,0.0,58,0.00,,CLR,0.00,VWS V14.01,2013-02-18 06:16:00,
2013-02-18 01:21:00,20.5,8.1,30.18,WNW,292,0.0,0.0,58,0.00,,CLR,0.00,VWS V14.01,2013-02-18 06:21:00,
2013-02-18 01:26:00,20.8,9.2,30.18,WNW,292,0.0,2.2,60,0.00,,CLR,0.00,VWS V14.01,2013-02-18 06:26:00,
2013-02-18 01:31:00,20.5,9.2,30.18,WNW,292,0.0,0.0,61,0.00,,CLR,0.00,VWS V14.01,2013-02-18 06:31:00,
2013-02-18 01:36:00,20.8,9.9,30.18,WNW,292,0.0,2.2,62,0.00,,CLR,0.00,VWS V14.01,2013-02-18 06:36:00,
2013-02-18 01:41:00,21.0,10.1,30.18,WNW,292,0.0,0.0,62,0.00,,CLR,0.00,VWS V14.01,2013-02-18 06:41:00,
2013-02-18 01:46:00,21.0,8.9,30.18,WNW,292,0.0,0.0,59,0.00,,CLR,0.00,VWS V14.01,2013-02-18 06:46:00,
2013-02-18 01:51:00,21.0,8.6,30.18,WNW,292,0.0,0.0,58,0.00,,CLR,0.00,VWS V14.01,2013-02-18 06:51:00,
2013-02-18 01:56:00,21.0,8.2,30.18,WNW,292,0.0,0.0,57,0.00,,CLR,0.00,VWS V14.01,2013-02-18 06:56:00,
2013-02-18 02:01:00,20.7,7.5,30.18,WNW,292,0.0,0.0,56,0.00,,CLR,0.00,VWS V14.01,2013-02-18 07:01:00,
2013-02-18 02:06:00,20.3,7.1,30.18,WNW,292,0.0,0.0,56,0.00,,CLR,0.00,VWS V14.01,2013-02-18 07:06:00,
2013-02-18 02:11:00,20.3,7.1,30.18,WNW,292,0.0,0.0,56,0.00,,CLR,0.00,VWS V14.01,2013-02-18 07:11:00,
2013-02-18 02:16:00,20.3,7.9,30.18,WNW,292,2.7,2.7,58,0.00,,CLR,0.00,VWS V14.01,2013-02-18 07:16:00,
2013-02-18 02:21:00,20.7,8.6,30.18,WNW,292,0.0,0.0,59,0.00,,CLR,0.00,VWS V14.01,2013-02-18 07:21:00,
2013-02-18 02:26:00,20.3,8.3,30.18,WNW,292,0.0,0.0,59,0.00,,CLR,0.00,VWS V14.01,2013-02-18 07:26:00,
2013-02-18 02:32:00,19.9,7.9,30.18,WNW,292,0.0,0.0,59,0.00,,CLR,0.00,VWS V14.01,2013-02-18 07:32:00,
2013-02-18 02:37:00,19.8,7.8,30.18,WNW,292,0.0,0.0,59,0.00,,CLR,0.00,VWS V14.01,2013-02-18 07:37:00,
2013-02-18 02:42:00,19.8,8.9,30.18,WNW,292,0.0,0.0,62,0.00,,CLR,0.00,VWS V14.01,2013-02-18 07:42:00,
2013-02-18 02:47:00,19.4,9.2,30.18,WNW,292,0.0,0.0,64,0.00,,CLR,0.00,VWS V14.01,2013-02-18 07:47:00,
2013-02-18 02:52:00,19.2,9.7,30.18,WNW,292,0.0,0.0,66,0.00,,CLR,0.00,VWS V14.01,2013-02-18 07:52:00,
2013-02-18 02:57:00,19.0,9.9,30.18,WNW,292,0.0,0.0,67,0.00,,CLR,0.00,VWS V14.01,2013-02-18 07:57:00,
2013-02-18 03:02:00,19.2,10.4,30.18,WNW,292,0.0,0.0,68,0.00,,CLR,0.00,VWS V14.01,2013-02-18 08:02:00,
2013-02-18 03:07:00,19.0,10.6,30.18,WNW,292,0.0,0.0,69,0.00,,CLR,0.00,VWS V14.01,2013-02-18 08:07:00,
2013-02-18 03:12:00,18.9,10.7,30.18,WNW,292,0.0,0.0,70,0.00,,CLR,0.00,VWS V14.01,2013-02-18 08:12:00,
2013-02-18 03:17:00,19.6,11.1,30.18,WNW,292,0.0,0.0,69,0.00,,CLR,0.00,VWS V14.01,2013-02-18 08:17:00,
2013-02-18 03:22:00,19.4,10.2,30.18,WNW,292,0.0,0.0,67,0.00,,CLR,0.00,VWS V14.01,2013-02-18 08:22:00,
2013-02-18 03:27:00,19.4,10.6,30.18,WNW,292,0.0,0.0,68,0.00,,CLR,0.00,VWS V14.01,2013-02-18 08:27:00,
2013-02-18 03:32:00,19.2,11.1,30.18,WNW,292,0.0,0.0,70,0.00,,CLR,0.00,VWS V14.01,2013-02-18 08:32:00,
2013-02-18 03:37:00,18.9,11.0,30.18,WNW,292,0.0,0.0,71,0.00,,CLR,0.00,VWS V14.01,2013-02-18 08:37:00,
2013-02-18 03:42:00,18.7,11.5,30.18,WNW,292,0.0,0.0,73,0.00,,CLR,0.00,VWS V14.01,2013-02-18 08:42:00,
2013-02-18 03:47:00,18.5,11.6,30.18,WNW,292,0.0,0.0,74,0.00,,CLR,0.00,VWS V14.01,2013-02-18 08:47:00,
2013-02-18 03:52:00,18.3,11.7,30.18,WNW,292,0.0,0.0,75,0.00,,CLR,0.00,VWS V14.01,2013-02-18 08:52:00,
2013-02-18 03:57:00,18.3,11.7,30.18,WNW,292,0.0,0.0,75,0.00,,CLR,0.00,VWS V14.01,2013-02-18 08:57:00,
2013-02-18 04:02:00,18.7,12.4,30.18,WNW,292,0.0,0.0,76,0.00,,CLR,0.00,VWS V14.01,2013-02-18 09:02:00,
2013-02-18 04:08:00,19.4,13.1,30.18,WNW,292,0.0,0.0,76,0.00,,CLR,0.00,VWS V14.01,2013-02-18 09:08:00,
2013-02-18 04:13:00,18.9,12.3,30.18,WNW,292,0.0,0.0,75,0.00,,CLR,0.00,VWS V14.01,2013-02-18 09:13:00,
2013-02-18 04:18:00,19.8,12.8,30.21,WNW,292,0.0,0.0,74,0.00,,CLR,0.00,VWS V14.01,2013-02-18 09:18:00,
2013-02-18 04:23:00,19.0,12.1,30.21,WNW,292,0.0,0.0,74,0.00,,CLR,0.00,VWS V14.01,2013-02-18 09:23:00,
2013-02-18 04:28:00,18.9,11.6,30.21,WNW,292,0.0,0.0,73,0.00,,CLR,0.00,VWS V14.01,2013-02-18 09:28:00,
2013-02-18 04:33:00,18.5,11.3,30.21,WNW,292,0.0,0.0,73,0.00,,CLR,0.00,VWS V14.01,2013-02-18 09:33:00,
2013-02-18 04:38:00,18.3,11.1,30.21,WNW,292,0.0,0.0,73,0.00,,CLR,0.00,VWS V14.01,2013-02-18 09:38:00,
2013-02-18 04:43:00,18.1,11.0,30.21,WNW,292,0.0,0.0,73,0.00,,CLR,0.00,VWS V14.01,2013-02-18 09:43:00,
2013-02-18 04:48:00,17.8,10.6,30.21,WNW,292,0.0,0.0,73,0.00,,CLR,0.00,VWS V14.01,2013-02-18 09:48:00,
2013-02-18 04:53:00,17.6,10.7,30.21,WNW,292,0.0,0.0,74,0.00,,CLR,0.00,VWS V14.01,2013-02-18 09:53:00,
2013-02-18 04:58:00,17.6,10.7,30.21,WNW,292,0.0,0.0,74,0.00,,CLR,0.00,VWS V14.01,2013-02-18 09:58:00,
2013-02-18 05:03:00,18.1,11.3,30.21,WNW,292,0.0,0.0,74,0.00,,CLR,0.00,VWS V14.01,2013-02-18 10:03:00,
2013-02-18 05:08:00,18.7,11.8,30.21,WNW,292,0.0,0.0,74,0.00,,CLR,0.00,VWS V14.01,2013-02-18 10:08:00,
2013-02-18 05:13:00,18.3,11.1,30.21,WNW,292,0.0,0.0,73,0.00,,CLR,0.00,VWS V14.01,2013-02-18 10:13:00,
2013-02-18 05:18:00,18.0,10.8,30.21,WNW,292,0.0,0.0,73,0.00,,CLR,0.00,VWS V14.01,2013-02-18 10:18:00,
2013-02-18 05:23:00,18.0,10.8,30.21,WNW,292,0.0,0.0,73,0.00,,CLR,0.00,VWS V14.01,2013-02-18 10:23:00,
2013-02-18 05:28:00,18.1,11.3,30.24,WNW,292,0.0,0.0,74,0.00,,CLR,0.00,VWS V14.01,2013-02-18 10:28:00,
2013-02-18 05:33:00,18.0,11.4,30.24,WNW,292,0.0,0.0,75,0.00,,CLR,0.00,VWS V14.01,2013-02-18 10:33:00,
2013-02-18 05:38:00,17.8,11.5,30.24,WNW,292,0.0,0.0,76,0.00,,CLR,0.00,VWS V14.01,2013-02-18 10:38:00,
2013-02-18 05:44:00,17.6,11.6,30.24,WNW,292,0.0,0.0,77,0.00,,CLR,0.00,VWS V14.01,2013-02-18 10:44:00,
2013-02-18 05:49:00,17.8,12.1,30.24,WNW,292,0.0,0.0,78,0.00,,CLR,0.00,VWS V14.01,2013-02-18 10:49:00,
2013-02-18 05:54:00,17.6,11.9,30.24,WNW,292,0.0,0.0,78,0.00,,CLR,0.00,VWS V14.01,2013-02-18 10:54:00,
2013-02-18 05:59:00,18.1,12.4,30.24,WNW,292,0.0,0.0,78,0.00,,CLR,0.00,VWS V14.01,2013-02-18 10:59:00,
2013-02-18 06:04:00,18.5,12.8,30.24,WNW,292,0.0,0.0,78,0.00,,CLR,0.00,VWS V14.01,2013-02-18 11:04:00,
2013-02-18 06:09:00,18.5,12.8,30.24,WNW,292,0.0,0.0,78,0.00,,CLR,0.00,VWS V14.01,2013-02-18 11:09:00,
2013-02-18 06:14:00,18.5,12.8,30.24,WNW,292,0.0,0.0,78,0.00,,CLR,0.00,VWS V14.01,2013-02-18 11:14:00,
2013-02-18 06:19:00,18.1,12.2,30.24,WNW,292,0.0,0.0,77,0.00,,CLR,0.00,VWS V14.01,2013-02-18 11:19:00,
2013-02-18 06:24:00,17.8,11.8,30.24,WNW,292,0.0,0.0,77,0.00,,CLR,0.00,VWS V14.01,2013-02-18 11:24:00,
2013-02-18 06:29:00,17.6,11.9,30.24,WNW,292,0.0,0.0,78,0.00,,CLR,0.00,VWS V14.01,2013-02-18 11:29:00,
2013-02-18 06:34:00,17.6,11.9,30.24,WNW,292,0.0,0.0,78,0.00,,CLR,0.00,VWS V14.01,2013-02-18 11:34:00,
2013-02-18 06:39:00,18.3,12.6,30.24,WNW,292,0.0,0.0,78,0.00,,CLR,0.00,VWS V14.01,2013-02-18 11:39:00,
2013-02-18 06:44:00,18.5,12.5,30.24,WNW,292,0.0,0.0,77,0.00,,CLR,0.00,VWS V14.01,2013-02-18 11:44:00,
2013-02-18 06:49:00,19.0,12.4,30.24,WNW,292,0.0,0.0,75,0.00,,CLR,0.00,VWS V14.01,2013-02-18 11:49:00,
2013-02-18 06:54:00,19.2,12.3,30.24,WNW,292,0.0,0.0,74,0.00,,CLR,0.00,VWS V14.01,2013-02-18 11:54:00,
2013-02-18 06:59:00,19.0,12.1,30.24,WNW,292,0.0,0.0,74,0.00,,CLR,0.00,VWS V14.01,2013-02-18 11:59:00,
2013-02-18 07:05:00,19.0,12.1,30.24,WNW,292,0.0,0.0,74,0.00,,CLR,0.00,VWS V14.01,2013-02-18 12:05:00,
2013-02-18 07:10:00,18.7,11.5,30.24,WNW,292,0.0,0.0,73,0.00,,CLR,0.00,VWS V14.01,2013-02-18 12:10:00,
2013-02-18 07:15:00,18.7,11.8,30.24,WNW,292,0.0,0.0,74,0.00,,CLR,0.00,VWS V14.01,2013-02-18 12:15:00,
2013-02-18 07:20:00,18.7,11.8,30.24,WNW,292,0.0,0.0,74,0.00,,CLR,0.00,VWS V14.01,2013-02-18 12:20:00,
2013-02-18 07:25:00,18.7,12.1,30.24,WNW,292,0.0,0.0,75,0.00,,CLR,0.00,VWS V14.01,2013-02-18 12:25:00,
2013-02-18 07:30:00,19.0,12.1,30.24,WNW,292,0.0,0.0,74,0.00,,CLR,0.00,VWS V14.01,2013-02-18 12:30:00,
2013-02-18 07:35:00,19.0,12.1,30.24,WNW,292,0.0,0.0,74,0.00,,CLR,0.00,VWS V14.01,2013-02-18 12:35:00,
2013-02-18 07:40:00,18.9,12.0,30.24,WNW,292,0.0,0.0,74,0.00,,CLR,0.00,VWS V14.01,2013-02-18 12:40:00,
2013-02-18 07:45:00,19.2,12.6,30.24,WNW,292,0.0,0.0,75,0.00,,CLR,0.00,VWS V14.01,2013-02-18 12:45:00,
2013-02-18 07:50:00,19.4,12.8,30.24,WNW,292,0.0,0.0,75,0.00,,CLR,0.00,VWS V14.01,2013-02-18 12:50:00,
2013-02-18 07:55:00,19.8,13.1,30.24,WNW,292,0.0,0.0,75,0.00,,CLR,0.00,VWS V14.01,2013-02-18 12:55:00,
2013-02-18 08:00:00,20.3,13.7,30.24,WNW,292,0.0,0.0,75,0.00,,CLR,0.00,VWS V14.01,2013-02-18 13:00:00,
2013-02-18 08:05:00,20.7,14.3,30.24,WNW,292,0.0,0.0,76,0.00,,CLR,0.00,VWS V14.01,2013-02-18 13:05:00,
2013-02-18 08:10:00,21.0,14.7,30.24,WNW,292,0.0,0.0,76,0.00,,CLR,0.00,VWS V14.01,2013-02-18 13:10:00,
2013-02-18 08:15:00,21.6,15.2,30.27,WNW,292,0.0,0.0,76,0.00,,CLR,0.00,VWS V14.01,2013-02-18 13:15:00,
2013-02-18 08:20:00,22.6,16.2,30.27,WNW,292,0.0,0.0,76,0.00,,CLR,0.00,VWS V14.01,2013-02-18 13:20:00,
2013-02-18 08:25:00,23.4,16.9,30.27,WNW,292,0.0,0.0,76,0.00,,CLR,0.00,VWS V14.01,2013-02-18 13:25:00,
2013-02-18 08:30:00,24.4,17.4,30.27,WNW,292,0.0,0.0,74,0.00,,CLR,0.00,VWS V14.01,2013-02-18 13:30:00,
2013-02-18 08:35:00,25.5,17.4,30.27,WNW,292,0.0,0.0,71,0.00,,CLR,0.00,VWS V14.01,2013-02-18 13:35:00,
2013-02-18 08:40:00,26.8,17.6,30.27,WNW,292,0.0,0.0,68,0.00,,CLR,0.00,VWS V14.01,2013-02-18 13:40:00,
2013-02-18 08:45:00,28.0,18.2,30.27,WNW,292,0.0,0.0,66,0.00,,CLR,0.00,VWS V14.01,2013-02-18 13:45:00,
2013-02-18 08:50:00,29.8,17.3,30.27,WNW,292,0.0,0.0,59,0.00,,CLR,0.00,VWS V14.01,2013-02-18 13:50:00,
2013-02-18 08:55:00,30.6,15.5,30.27,WNW,292,0.0,0.0,53,0.00,,CLR,0.00,VWS V14.01,2013-02-18 13:55:00,
2013-02-18 09:00:00,30.7,14.3,30.27,WNW,292,0.0,0.0,50,0.00,,CLR,0.00,VWS V14.01,2013-02-18 14:00:00,
2013-02-18 09:05:00,30.9,12.1,30.27,WNW,292,0.0,0.0,45,0.00,,CLR,0.00,VWS V14.01,2013-02-18 14:05:00,
2013-02-18 09:10:00,31.3,11.4,30.27,WNW,292,0.0,0.0,43,0.00,,CLR,0.00,VWS V14.01,2013-02-18 14:10:00,
2013-02-18 09:15:00,31.8,10.8,30.27,WNW,292,0.0,0.0,41,0.00,,CLR,0.00,VWS V14.01,2013-02-18 14:15:00,
2013-02-18 09:20:00,32.9,11.2,30.27,WNW,292,2.7,2.7,40,0.00,,CLR,0.00,VWS V14.01,2013-02-18 14:20:00,
2013-02-18 09:25:00,33.6,10.1,30.27,WNW,292,0.0,0.0,37,0.00,,CLR,0.00,VWS V14.01,2013-02-18 14:25:00,
2013-02-18 09:30:00,34.2,10.6,30.27,WNW,292,3.6,4.0,37,0.00,,CLR,0.00,VWS V14.01,2013-02-18 14:30:00,
2013-02-18 09:35:00,35.1,9.5,30.27,WNW,292,0.0,2.7,34,0.00,,CLR,0.00,VWS V14.01,2013-02-18 14:35:00,
2013-02-18 09:40:00,35.8,8.8,30.27,WNW,292,2.2,2.7,32,0.00,,CLR,0.00,VWS V14.01,2013-02-18 14:40:00,
2013-02-18 09:46:00,36.9,9.8,30.27,WNW,292,2.2,2.2,32,0.00,,CLR,0.00,VWS V14.01,2013-02-18 14:46:00,
2013-02-18 09:51:00,37.8,9.9,30.27,WNW,292,2.7,2.7,31,0.00,,CLR,0.00,VWS V14.01,2013-02-18 14:51:00,
2013-02-18 09:56:00,38.5,9.0,30.27,WNW,292,0.0,3.6,29,0.00,,CLR,0.00,VWS V14.01,2013-02-18 14:56:00,
2013-02-18 10:01:00,38.8,9.3,30.27,WNW,292,0.0,3.1,29,0.00,,CLR,0.00,VWS V14.01,2013-02-18 15:01:00,
2013-02-18 10:06:00,39.7,7.7,30.27,SSW,202,3.6,4.0,26,0.00,,CLR,0.00,VWS V14.01,2013-02-18 15:06:00,
2013-02-18 10:11:00,39.7,7.7,30.27,SSW,202,3.6,4.0,26,0.00,,CLR,0.00,VWS V14.01,2013-02-18 15:11:00,
2013-02-18 10:16:00,40.5,8.3,30.27,SSE,158,2.2,3.1,26,0.00,,CLR,0.00,VWS V14.01,2013-02-18 15:16:00,
2013-02-18 10:21:00,40.8,8.6,30.27,SSE,158,2.7,3.1,26,0.00,,CLR,0.00,VWS V14.01,2013-02-18 15:21:00,
2013-02-18 10:26:00,42.3,7.1,30.27,SSW,202,0.0,2.7,23,0.00,,CLR,0.00,VWS V14.01,2013-02-18 15:26:00,
2013-02-18 10:31:00,42.8,7.6,30.27,SSW,202,2.7,3.1,23,0.00,,CLR,0.00,VWS V14.01,2013-02-18 15:31:00,
2013-02-18 10:36:00,44.2,10.7,30.27,SSE,158,4.0,4.9,25,0.00,,CLR,0.00,VWS V14.01,2013-02-18 15:36:00,
2013-02-18 10:41:00,42.8,7.6,30.27,SSE,158,3.1,4.9,23,0.00,,CLR,0.00,VWS V14.01,2013-02-18 15:41:00,
2013-02-18 10:46:00,42.8,7.6,30.27,SSW,202,3.1,3.6,23,0.00,,CLR,0.00,VWS V14.01,2013-02-18 15:46:00,
2013-02-18 10:51:00,44.1,8.6,30.27,SSW,202,3.6,3.6,23,0.00,,CLR,0.00,VWS V14.01,2013-02-18 15:51:00,
2013-02-18 10:56:00,43.7,8.3,30.27,WSW,248,4.0,4.0,23,0.00,,CLR,0.00,VWS V14.01,2013-02-18 15:56:00,
2013-02-18 11:01:00,44.8,8.3,30.27,SSE,158,3.1,4.0,22,0.00,,CLR,0.00,VWS V14.01,2013-02-18 16:01:00,
2013-02-18 11:06:00,45.7,9.0,30.27,SSW,202,2.7,4.9,22,0.00,,CLR,0.00,VWS V14.01,2013-02-18 16:06:00,
2013-02-18 11:11:00,45.5,8.9,30.27,SSW,202,0.0,3.1,22,0.00,,CLR,0.00,VWS V14.01,2013-02-18 16:11:00,
2013-02-18 11:16:00,46.4,9.6,30.27,SSW,202,3.1,4.0,22,0.00,,CLR,0.00,VWS V14.01,2013-02-18 16:16:00,
2013-02-18 11:21:00,46.0,9.3,30.27,WSW,248,3.1,4.0,22,0.00,,,0.00,VWS V14.01,2013-02-18 16:21:00,
2013-02-18 11:26:00,46.6,9.8,30.27,SSE,158,4.0,4.0,22,0.00,,,0.00,VWS V14.01,2013-02-18 16:26:00,
2013-02-18 11:31:00,46.6,9.8,30.27,SSW,202,2.7,2.7,22,0.00,,,0.00,VWS V14.01,2013-02-18 16:31:00,
2013-02-18 11:36:00,46.9,10.1,30.27,SSW,202,2.2,3.1,22,0.00,,,0.00,VWS V14.01,2013-02-18 16:36:00,
2013-02-18 11:41:00,47.8,10.9,30.27,SSE,158,4.0,6.3,22,0.00,,CLR,0.00,VWS V14.01,2013-02-18 16:41:00,
2013-02-18 11:46:00,48.4,10.3,30.24,SSW,202,2.7,2.7,21,0.00,,CLR,0.00,VWS V14.01,2013-02-18 16:46:00,
2013-02-18 11:51:00,48.9,10.7,30.24,SW,225,0.0,2.7,21,0.00,,CLR,0.00,VWS V14.01,2013-02-18 16:51:00,
2013-02-18 11:56:00,49.6,11.3,30.24,WSW,248,4.9,4.9,21,0.00,,CLR,0.00,VWS V14.01,2013-02-18 16:56:00,
2013-02-18 12:01:00,49.3,11.0,30.24,SSW,202,5.8,5.8,21,0.00,,CLR,0.00,VWS V14.01,2013-02-18 17:01:00,
2013-02-18 12:06:00,50.0,11.6,30.24,SSE,158,3.1,3.1,21,0.00,,CLR,0.00,VWS V14.01,2013-02-18 17:06:00,
2013-02-18 12:11:00,49.6,11.3,30.24,SSE,158,3.6,4.0,21,0.00,,CLR,0.00,VWS V14.01,2013-02-18 17:11:00,
2013-02-18 12:16:00,50.7,12.2,30.24,SSW,202,7.6,8.1,21,0.00,,CLR,0.00,VWS V14.01,2013-02-18 17:16:00,
2013-02-18 12:21:00,51.6,13.0,30.24,South,180,2.2,2.2,21,0.00,,CLR,0.00,VWS V14.01,2013-02-18 17:21:00,
2013-02-18 12:26:00,51.4,12.8,30.24,SE,135,4.0,4.0,21,0.00,,CLR,0.00,VWS V14.01,2013-02-18 17:26:00,
2013-02-18 12:31:00,52.3,13.6,30.24,SSE,158,5.8,6.3,21,0.00,,CLR,0.00,VWS V14.01,2013-02-18 17:31:00,
2013-02-18 12:36:00,51.1,12.5,30.24,SSE,158,6.3,7.6,21,0.00,,CLR,0.00,VWS V14.01,2013-02-18 17:36:00,
2013-02-18 12:41:00,51.4,12.8,30.24,South,180,4.9,7.6,21,0.00,,CLR,0.00,VWS V14.01,2013-02-18 17:41:00,
2013-02-18 12:46:00,51.4,12.8,30.24,SSW,202,3.6,4.0,21,0.00,,CLR,0.00,VWS V14.01,2013-02-18 17:46:00,
2013-02-18 12:51:00,50.9,12.4,30.24,SSE,158,4.9,5.4,21,0.00,,CLR,0.00,VWS V14.01,2013-02-18 17:51:00,
2013-02-18 12:56:00,50.9,12.4,30.24,SE,135,7.2,7.2,21,0.00,,CLR,0.00,VWS V14.01,2013-02-18 17:56:00,
2013-02-18 13:02:00,51.4,12.8,30.21,South,180,3.6,4.9,21,0.00,,CLR,0.00,VWS V14.01,2013-02-18 18:02:00,
2013-02-18 13:07:00,51.8,13.1,30.21,SSE,158,4.0,7.6,21,0.00,,CLR,0.00,VWS V14.01,2013-02-18 18:07:00,
2013-02-18 13:12:00,51.1,12.5,30.21,SSW,202,5.8,5.8,21,0.00,,CLR,0.00,VWS V14.01,2013-02-18 18:12:00,
2013-02-18 13:17:00,52.5,13.7,30.21,SSE,158,5.4,5.4,21,0.00,,CLR,0.00,VWS V14.01,2013-02-18 18:17:00,
2013-02-18 13:22:00,51.6,13.0,30.21,SSW,202,4.0,7.6,21,0.00,,CLR,0.00,VWS V14.01,2013-02-18 18:22:00,
2013-02-18 13:27:00,52.5,13.7,30.21,SSE,158,7.6,7.6,21,0.00,,CLR,0.00,VWS V14.01,2013-02-18 18:27:00,
2013-02-18 13:32:00,52.0,13.3,30.21,SSE,158,7.6,7.6,21,0.00,,CLR,0.00,VWS V14.01,2013-02-18 18:32:00,
2013-02-18 13:37:00,52.3,13.6,30.21,SSE,158,4.9,4.9,21,0.00,,CLR,0.00,VWS V14.01,2013-02-18 18:37:00,
2013-02-18 13:42:00,51.6,13.0,30.21,WSW,248,3.6,3.6,21,0.00,,CLR,0.00,VWS V14.01,2013-02-18 18:42:00,
2013-02-18 13:47:00,52.3,13.6,30.18,SSW,202,5.4,5.4,21,0.00,,CLR,0.00,VWS V14.01,2013-02-18 18:47:00,
2013-02-18 13:52:00,53.4,14.5,30.18,SSE,158,7.2,7.2,21,0.00,,CLR,0.00,VWS V14.01,2013-02-18 18:52:00,
2013-02-18 13:57:00,53.1,14.2,30.18,SSE,158,7.2,8.3,21,0.00,,CLR,0.00,VWS V14.01,2013-02-18 18:57:00,
2013-02-18 14:02:00,53.2,14.3,30.18,SSE,158,8.1,8.1,21,0.00,,CLR,0.00,VWS V14.01,2013-02-18 19:02:00,
2013-02-18 14:07:00,53.8,13.7,30.18,SSW,202,2.7,4.0,20,0.00,,CLR,0.00,VWS V14.01,2013-02-18 19:07:00,
2013-02-18 14:12:00,54.3,14.1,30.18,SSE,158,4.9,7.6,20,0.00,,CLR,0.00,VWS V14.01,2013-02-18 19:12:00,
2013-02-18 14:18:00,52.9,14.0,30.18,SSW,202,4.0,6.3,21,0.00,,CLR,0.00,VWS V14.01,2013-02-18 19:18:00,
2013-02-18 14:23:00,54.1,14.0,30.18,West,270,2.2,5.4,20,0.00,,CLR,0.00,VWS V14.01,2013-02-18 19:23:00,
2013-02-18 14:28:00,53.6,13.5,30.18,South,180,4.0,4.9,20,0.00,,CLR,0.00,VWS V14.01,2013-02-18 19:28:00,
2013-02-18 14:33:00,52.0,13.3,30.18,SSE,158,2.2,3.1,21,0.00,,CLR,0.00,VWS V14.01,2013-02-18 19:33:00,
2013-02-18 14:38:00,53.1,14.2,30.18,SSW,202,3.6,4.0,21,0.00,,CLR,0.00,VWS V14.01,2013-02-18 19:38:00,
2013-02-18 14:43:00,53.6,13.5,30.18,SSE,158,8.3,8.3,20,0.00,,CLR,0.00,VWS V14.01,2013-02-18 19:43:00,
2013-02-18 14:48:00,53.2,14.3,30.18,SSW,202,4.0,4.0,21,0.00,,CLR,0.00,VWS V14.01,2013-02-18 19:48:00,
2013-02-18 14:53:00,52.9,14.0,30.18,South,180,4.9,4.9,21,0.00,,CLR,0.00,VWS V14.01,2013-02-18 19:53:00,
2013-02-18 14:58:00,53.2,14.3,30.15,SSE,158,5.8,7.6,21,0.00,,CLR,0.00,VWS V14.01,2013-02-18 19:58:00,
2013-02-18 15:03:00,53.6,13.5,30.15,SW,225,3.6,5.8,20,0.00,,CLR,0.00,VWS V14.01,2013-02-18 20:03:00,
2013-02-18 15:08:00,53.4,14.5,30.15,SSE,158,5.4,8.7,21,0.00,,CLR,0.00,VWS V14.01,2013-02-18 20:08:00,
2013-02-18 15:13:00,52.3,13.6,30.18,South,180,7.6,9.2,21,0.00,,CLR,0.00,VWS V14.01,2013-02-18 20:13:00,
2013-02-18 15:18:00,52.0,13.3,30.18,SSE,158,3.6,3.6,21,0.00,,CLR,0.00,VWS V14.01,2013-02-18 20:18:00,
2013-02-18 15:24:00,52.2,13.4,30.18,SSE,158,5.4,5.4,21,0.00,,CLR,0.00,VWS V14.01,2013-02-18 20:24:00,
2013-02-18 15:29:00,52.0,13.3,30.15,SSE,158,5.8,5.8,21,0.00,,CLR,0.00,VWS V14.01,2013-02-18 20:29:00,
2013-02-18 15:34:00,51.8,13.1,30.15,SSW,202,4.0,4.0,21,0.00,,CLR,0.00,VWS V14.01,2013-02-18 20:34:00,
2013-02-18 15:39:00,52.7,16.0,30.15,SSW,202,4.9,4.9,23,0.00,,CLR,0.00,VWS V14.01,2013-02-18 20:39:00,
2013-02-18 15:44:00,52.2,13.4,30.15,SSE,158,5.8,5.8,21,0.00,,CLR,0.00,VWS V14.01,2013-02-18 20:44:00,
2013-02-18 15:49:00,52.3,13.6,30.15,SSE,158,2.7,4.9,21,0.00,,CLR,0.00,VWS V14.01,2013-02-18 20:49:00,
2013-02-18 15:54:00,52.3,13.6,30.15,SSW,202,3.6,4.0,21,0.00,,CLR,0.00,VWS V14.01,2013-02-18 20:54:00,
2013-02-18 15:59:00,52.5,15.8,30.15,SSE,158,3.1,4.0,23,0.00,,CLR,0.00,VWS V14.01,2013-02-18 20:59:00,
2013-02-18 16:04:00,51.8,15.2,30.15,SSE,158,5.8,5.8,23,0.00,,CLR,0.00,VWS V14.01,2013-02-18 21:04:00,
2013-02-18 16:09:00,51.6,16.0,30.15,WSW,248,4.0,4.9,24,0.00,,CLR,0.00,VWS V14.01,2013-02-18 21:09:00,
2013-02-18 16:14:00,52.0,15.4,30.18,SSW,202,4.0,4.0,23,0.00,,CLR,0.00,VWS V14.01,2013-02-18 21:14:00,
2013-02-18 16:19:00,51.8,15.2,30.18,SSE,158,6.3,6.3,23,0.00,,CLR,0.00,VWS V14.01,2013-02-18 21:19:00,
2013-02-18 16:24:00,51.6,16.0,30.18,SSE,158,5.4,5.8,24,0.00,,CLR,0.00,VWS V14.01,2013-02-18 21:24:00,
2013-02-18 16:29:00,51.4,15.9,30.15,SSE,158,4.0,7.2,24,0.00,,CLR,0.00,VWS V14.01,2013-02-18 21:29:00,
2013-02-18 16:34:00,51.6,16.0,30.15,SSE,158,3.6,4.0,24,0.00,,CLR,0.00,VWS V14.01,2013-02-18 21:34:00,
2013-02-18 16:40:00,51.4,15.9,30.15,SSW,202,5.8,5.8,24,0.00,,CLR,0.00,VWS V14.01,2013-02-18 21:40:00,
2013-02-18 16:45:00,51.6,16.0,30.15,SSE,158,2.7,3.6,24,0.00,,CLR,0.00,VWS V14.01,2013-02-18 21:45:00,
2013-02-18 16:50:00,51.4,15.9,30.15,SSW,202,3.6,5.8,24,0.00,,CLR,0.00,VWS V14.01,2013-02-18 21:50:00,
2013-02-18 16:55:00,51.6,16.0,30.15,SSW,202,2.7,4.0,24,0.00,,CLR,0.00,VWS V14.01,2013-02-18 21:55:00,
2013-02-18 17:00:00,51.3,15.7,30.15,South,180,3.6,4.0,24,0.00,,CLR,0.00,VWS V14.01,2013-02-18 22:00:00,
2013-02-18 17:05:00,51.3,15.7,30.15,SSW,202,3.1,4.0,24,0.00,,CLR,0.00,VWS V14.01,2013-02-18 22:05:00,
2013-02-18 17:10:00,51.1,15.6,30.15,SSE,158,2.7,3.1,24,0.00,,CLR,0.00,VWS V14.01,2013-02-18 22:10:00,
2013-02-18 17:15:00,50.7,15.3,30.15,SSE,158,4.0,4.9,24,0.00,,CLR,0.00,VWS V14.01,2013-02-18 22:15:00,
2013-02-18 17:20:00,50.4,14.9,30.15,SSE,158,3.1,4.0,24,0.00,,CLR,0.00,VWS V14.01,2013-02-18 22:20:00,
2013-02-18 17:25:00,50.2,14.8,30.15,SSW,202,0.0,2.2,24,0.00,,CLR,0.00,VWS V14.01,2013-02-18 22:25:00,
2013-02-18 17:30:00,49.8,14.5,30.15,SW,225,0.0,2.7,24,0.00,,CLR,0.00,VWS V14.01,2013-02-18 22:30:00,
2013-02-18 17:35:00,49.6,16.2,30.15,SSE,158,0.0,0.0,26,0.00,,CLR,0.00,VWS V14.01,2013-02-18 22:35:00,
2013-02-18 17:40:00,49.5,16.0,30.15,SSE,158,2.7,5.4,26,0.00,,CLR,0.00,VWS V14.01,2013-02-18 22:40:00,
2013-02-18 17:45:00,49.1,16.6,30.15,SSW,202,3.1,3.1,27,0.00,,CLR,0.00,VWS V14.01,2013-02-18 22:45:00,
2013-02-18 17:50:00,48.9,16.4,30.15,South,180,3.1,4.0,27,0.00,,CLR,0.00,VWS V14.01,2013-02-18 22:50:00,
2013-02-18 17:55:00,48.7,16.3,30.15,SSE,158,2.7,4.9,27,0.00,,CLR,0.00,VWS V14.01,2013-02-18 22:55:00,
2013-02-18 18:00:00,48.4,16.0,30.15,SSE,158,0.0,2.7,27,0.00,,CLR,0.00,VWS V14.01,2013-02-18 23:00:00,
2013-02-18 18:05:00,47.8,16.3,30.15,SSE,158,2.2,2.7,28,0.00,,CLR,0.00,VWS V14.01,2013-02-18 23:05:00,
2013-02-18 18:11:00,47.7,16.2,30.15,SSE,158,2.2,2.2,28,0.00,,CLR,0.00,VWS V14.01,2013-02-18 23:11:00,
2013-02-18 18:16:00,46.9,15.6,30.15,SSE,158,2.7,3.1,28,0.00,,CLR,0.00,VWS V14.01,2013-02-18 23:16:00,
2013-02-18 18:21:00,46.4,15.1,30.15,SSE,158,0.0,0.0,28,0.00,,CLR,0.00,VWS V14.01,2013-02-18 23:21:00,
2013-02-18 18:26:00,45.7,15.3,30.15,SSE,158,0.0,0.0,29,0.00,,CLR,0.00,VWS V14.01,2013-02-18 23:26:00,
2013-02-18 18:31:00,45.1,15.6,30.15,SSE,158,0.0,0.0,30,0.00,,CLR,0.00,VWS V14.01,2013-02-18 23:31:00,
2013-02-18 18:36:00,45.0,15.4,30.15,SSE,158,3.1,3.1,30,0.00,,CLR,0.00,VWS V14.01,2013-02-18 23:36:00,
2013-02-18 18:41:00,44.6,15.1,30.15,SSE,158,2.2,2.2,30,0.00,,CLR,0.00,VWS V14.01,2013-02-18 23:41:00,
2013-02-18 18:46:00,44.1,15.4,30.15,SSE,158,0.0,0.0,31,0.00,,CLR,0.00,VWS V14.01,2013-02-18 23:46:00,
2013-02-18 18:51:00,43.7,15.1,30.15,SSE,158,0.0,0.0,31,0.00,,CLR,0.00,VWS V14.01,2013-02-18 23:51:00,
2013-02-18 18:56:00,43.5,15.6,30.15,SSE,158,0.0,0.0,32,0.00,,CLR,0.00,VWS V14.01,2013-02-18 23:56:00,
2013-02-18 19:01:00,43.0,15.2,30.15,SSE,158,0.0,0.0,32,0.00,,CLR,0.00,VWS V14.01,2013-02-19 00:01:00,
2013-02-18 19:06:00,42.4,15.4,30.15,SSE,158,0.0,0.0,33,0.00,,CLR,0.00,VWS V14.01,2013-02-19 00:06:00,
2013-02-18 19:11:00,41.5,15.3,30.15,SSE,158,0.0,0.0,34,0.00,,CLR,0.00,VWS V14.01,2013-02-19 00:11:00,
2013-02-18 19:16:00,41.0,15.5,30.15,SSE,158,0.0,0.0,35,0.00,,CLR,0.00,VWS V14.01,2013-02-19 00:16:00,
2013-02-18 19:21:00,40.1,15.9,30.15,SSE,158,0.0,0.0,37,0.00,,CLR,0.00,VWS V14.01,2013-02-19 00:21:00,
2013-02-18 19:26:00,39.4,15.3,30.15,SSE,158,0.0,0.0,37,0.00,,CLR,0.00,VWS V14.01,2013-02-19 00:26:00,
2013-02-18 19:31:00,38.7,15.9,30.15,SSE,158,0.0,0.0,39,0.00,,CLR,0.00,VWS V14.01,2013-02-19 00:31:00,
2013-02-18 19:37:00,38.1,15.4,30.15,SSE,158,0.0,0.0,39,0.00,,CLR,0.00,VWS V14.01,2013-02-19 00:37:00,
2013-02-18 19:42:00,37.8,15.6,30.15,SSE,158,0.0,0.0,40,0.00,,CLR,0.00,VWS V14.01,2013-02-19 00:42:00,
2013-02-18 19:47:00,37.4,15.9,30.18,SSE,158,0.0,0.0,41,0.00,,CLR,0.00,VWS V14.01,2013-02-19 00:47:00,
2013-02-18 19:52:00,36.9,15.9,30.18,SSE,158,0.0,0.0,42,0.00,,CLR,0.00,VWS V14.01,2013-02-19 00:52:00,
2013-02-18 19:57:00,36.7,16.3,30.18,SSE,158,0.0,0.0,43,0.00,,CLR,0.00,VWS V14.01,2013-02-19 00:57:00,
2013-02-18 20:02:00,36.3,17.0,30.15,SSE,158,0.0,0.0,45,0.00,,CLR,0.00,VWS V14.01,2013-02-19 01:02:00,
2013-02-18 20:07:00,36.0,17.7,30.15,SSE,158,0.0,0.0,47,0.00,,CLR,0.00,VWS V14.01,2013-02-19 01:07:00,
2013-02-18 20:12:00,35.8,18.0,30.15,SSE,158,0.0,0.0,48,0.00,,CLR,0.00,VWS V14.01,2013-02-19 01:12:00,
2013-02-18 20:17:00,35.2,18.5,30.15,SSE,158,0.0,0.0,50,0.00,,CLR,0.00,VWS V14.01,2013-02-19 01:17:00,
2013-02-18 20:22:00,34.9,18.1,30.15,SSE,158,0.0,0.0,50,0.00,,CLR,0.00,VWS V14.01,2013-02-19 01:22:00,
2013-02-18 20:27:00,34.7,18.0,30.15,SSE,158,0.0,0.0,50,0.00,,CLR,0.00,VWS V14.01,2013-02-19 01:27:00,
2013-02-18 20:32:00,34.7,18.0,30.15,SSE,158,0.0,0.0,50,0.00,,CLR,0.00,VWS V14.01,2013-02-19 01:32:00,
2013-02-18 20:37:00,34.5,18.3,30.15,SSE,158,0.0,0.0,51,0.00,,CLR,0.00,VWS V14.01,2013-02-19 01:37:00,
2013-02-18 20:42:00,34.0,17.8,30.15,SSE,158,0.0,0.0,51,0.00,,CLR,0.00,VWS V14.01,2013-02-19 01:42:00,
2013-02-18 20:47:00,34.0,18.2,30.15,SSE,158,0.0,0.0,52,0.00,,CLR,0.00,VWS V14.01,2013-02-19 01:47:00,
2013-02-18 20:52:00,33.8,18.5,30.15,SSE,158,0.0,0.0,53,0.00,,CLR,0.00,VWS V14.01,2013-02-19 01:52:00,
2013-02-18 20:57:00,33.6,19.2,30.15,SSE,158,0.0,0.0,55,0.00,,CLR,0.00,VWS V14.01,2013-02-19 01:57:00,
2013-02-18 21:02:00,33.3,19.7,30.15,SSE,158,0.0,0.0,57,0.00,,CLR,0.00,VWS V14.01,2013-02-19 02:02:00,
2013-02-18 21:08:00,33.1,19.5,30.15,SSE,158,0.0,0.0,57,0.00,,CLR,0.00,VWS V14.01,2013-02-19 02:08:00,
2013-02-18 21:13:00,33.1,19.9,30.18,SSE,158,0.0,0.0,58,0.00,,CLR,0.00,VWS V14.01,2013-02-19 02:13:00,
2013-02-18 21:17:00,33.4,19.9,30.18,SSE,158,0.0,0.0,57,0.00,,CLR,0.00,VWS V14.01,2013-02-19 02:17:00,
2013-02-18 21:23:00,33.6,19.6,30.18,SSE,158,0.0,0.0,56,0.00,,CLR,0.00,VWS V14.01,2013-02-19 02:23:00,
2013-02-18 21:28:00,33.8,19.4,30.18,SSE,158,0.0,0.0,55,0.00,,CLR,0.00,VWS V14.01,2013-02-19 02:28:00,
2013-02-18 21:33:00,33.8,18.9,30.18,SSE,158,0.0,0.0,54,0.00,,CLR,0.00,VWS V14.01,2013-02-19 02:33:00,
2013-02-18 21:38:00,33.6,18.8,30.18,SSE,158,0.0,0.0,54,0.00,,CLR,0.00,VWS V14.01,2013-02-19 02:38:00,
2013-02-18 21:43:00,33.6,18.8,30.18,SSE,158,0.0,0.0,54,0.00,,CLR,0.00,VWS V14.01,2013-02-19 02:43:00,
2013-02-18 21:48:00,33.3,18.9,30.18,SSE,158,0.0,0.0,55,0.00,,CLR,0.00,VWS V14.01,2013-02-19 02:48:00,
2013-02-18 21:53:00,32.9,18.9,30.18,SSE,158,0.0,0.0,56,0.00,,CLR,0.00,VWS V14.01,2013-02-19 02:53:00,
2013-02-18 21:58:00,32.4,18.8,30.18,SSE,158,0.0,0.0,57,0.00,,CLR,0.00,VWS V14.01,2013-02-19 02:58:00,
2013-02-18 22:03:00,32.2,19.1,30.18,SSE,158,0.0,0.0,58,0.00,,CLR,0.00,VWS V14.01,2013-02-19 03:03:00,
2013-02-18 22:08:00,32.2,19.5,30.18,SSE,158,0.0,0.0,59,0.00,,CLR,0.00,VWS V14.01,2013-02-19 03:08:00,
2013-02-18 22:14:00,32.2,19.5,30.15,SSE,158,2.2,2.2,59,0.00,,CLR,0.00,VWS V14.01,2013-02-19 03:14:00,
2013-02-18 22:19:00,35.1,21.0,30.15,SSE,158,2.7,2.7,56,0.00,,CLR,0.00,VWS V14.01,2013-02-19 03:19:00,
2013-02-18 22:24:00,37.2,20.8,30.15,SSE,158,2.7,2.7,51,0.00,,CLR,0.00,VWS V14.01,2013-02-19 03:24:00,
2013-02-18 22:29:00,38.7,19.7,30.15,SSE,158,0.0,2.2,46,0.00,,CLR,0.00,VWS V14.01,2013-02-19 03:29:00,
2013-02-18 22:34:00,39.0,18.4,30.15,SSE,158,2.7,2.7,43,0.00,,CLR,0.00,VWS V14.01,2013-02-19 03:34:00,
2013-02-18 22:39:00,38.7,18.1,30.15,SSE,158,3.1,3.1,43,0.00,,CLR,0.00,VWS V14.01,2013-02-19 03:39:00,
2013-02-18 22:44:00,38.5,17.9,30.15,SE,135,2.7,2.7,43,0.00,,CLR,0.00,VWS V14.01,2013-02-19 03:44:00,
2013-02-18 22:49:00,38.5,17.9,30.15,SE,135,0.0,2.7,43,0.00,,CLR,0.00,VWS V14.01,2013-02-19 03:49:00,
2013-02-18 22:54:00,37.8,17.3,30.15,SE,135,2.2,2.2,43,0.00,,CLR,0.00,VWS V14.01,2013-02-19 03:54:00,
2013-02-18 22:59:00,38.1,17.6,30.12,SE,135,0.0,0.0,43,0.00,,CLR,0.00,VWS V14.01,2013-02-19 03:59:00,
2013-02-18 23:04:00,37.4,17.5,30.12,SE,135,4.0,4.0,44,0.00,,CLR,0.00,VWS V14.01,2013-02-19 04:04:00,
2013-02-18 23:09:00,37.2,17.3,30.12,SE,135,0.0,0.0,44,0.00,,CLR,0.00,VWS V14.01,2013-02-19 04:09:00,
2013-02-18 23:15:00,38.1,18.1,30.15,SE,135,0.0,2.7,44,0.00,,CLR,0.00,VWS V14.01,2013-02-19 04:15:00,
2013-02-18 23:20:00,38.8,18.3,30.15,South,180,2.2,2.2,43,0.00,,CLR,0.00,VWS V14.01,2013-02-19 04:20:00,
2013-02-18 23:25:00,39.4,17.7,30.15,SSE,158,4.9,4.9,41,0.00,,CLR,0.00,VWS V14.01,2013-02-19 04:25:00,
2013-02-18 23:30:00,39.7,17.4,30.15,South,180,0.0,2.2,40,0.00,,CLR,0.00,VWS V14.01,2013-02-19 04:30:00,
2013-02-18 23:35:00,40.3,17.9,30.15,SSW,202,2.2,4.9,40,0.00,,CLR,0.00,VWS V14.01,2013-02-19 04:35:00,
2013-02-18 23:40:00,40.3,17.9,30.15,SW,225,2.7,3.6,40,0.00,,CLR,0.00,VWS V14.01,2013-02-19 04:40:00,
2013-02-18 23:45:00,40.5,17.5,30.15,SSW,202,2.7,3.6,39,0.00,,CLR,0.00,VWS V14.01,2013-02-19 04:45:00,
2013-02-18 23:50:00,40.5,17.5,30.15,SSW,202,3.6,4.0,39,0.00,,CLR,0.00,VWS V14.01,2013-02-19 04:50:00,
2013-02-18 23:55:00,40.8,17.8,30.15,ESE,112,2.7,3.1,39,0.00,,CLR,0.00,VWS V14.01,2013-02-19 04:55:00,